Weather History for Zeltweg, Austria

Change the Weather History Date:

Wednesday, February 20, 2013

  Actual Average (LOWG) Record (LOWG)
Temperature  
Mean Temperature 24 °F -  
Max Temperature 33 °F 44 °F 55 °F (1997)
Min Temperature 14 °F 27 °F 14 °F (2003)
Degree Days  
Heating Degree Days 42    
Moisture  
Dew Point 20 °F    
Average Humidity 81    
Maximum Humidity 93    
Minimum Humidity 60    
Precipitation  
Precipitation 0.00 in - - ()
Sea Level Pressure  
Sea Level Pressure 29.93 in    
Wind  
Wind Speed 3 mph ()    
Max Wind Speed 14 mph    
Max Gust Speed -    
Visibility 11.1 miles    
Events Snow    
Averages and records for this station are not official NWS values.
T = Trace of Precipitation, MM = Missing Value Source: Averaged Metar Reports

Daily Weather History Graph

Daily Weather History Graph

Search for Another Location

Airport:

Trip Planner

Search our weather history database for the weather conditions in past years. The results will help you decide how hot, cold, wet, or windy it might be!

Date:

Astronomy

Feb. 20, 2013 Rise Set
Actual Time 6:57 AM CET 5:32 PM CET
Civil Twilight 6:26 AM CET 6:03 PM CET
Nautical Twilight 5:50 AM CET 6:39 PM CET
Astronomical Twilight 5:15 AM CET 7:14 PM CET
Moon 12:26 PM CET (2/20) 3:16 AM CET (2/20)
Length of Visible Light 11h 37m
Length of Day
10h 35m
Waxing Gibbous, 74% of the Moon is Illuminated
Feb 20
Waxing Gibbous
Feb 25
Full
Mar 4
Last Quarter
Mar 11
New
Mar 19
First Quarter

Hourly Weather History & Observations

Time (CET) Temp. Windchill Dew Point Humidity Pressure Visibility Wind Dir Wind Speed Gust Speed Precip Events Conditions
4:50 AM 17.6 °F - 15.8 °F 93% 29.86 in 6.2 mi Calm Calm - N/A   Mostly Cloudy
5:50 AM 17.6 °F - 15.8 °F 93% 29.86 in 5.0 mi Variable 2.3 mph - N/A   Mostly Cloudy
6:50 AM 19.4 °F - 17.6 °F 93% 29.86 in 7.5 mi Variable 2.3 mph - N/A   Mostly Cloudy
7:20 AM 19.4 °F - 17.6 °F 93% 29.89 in 6.2 mi Variable 1.2 mph - N/A Snow Light Snow
7:50 AM 21.2 °F 16.4 °F 19.4 °F 93% 29.89 in 6.2 mi Variable 3.5 mph - N/A Snow Light Snow
8:20 AM 23.0 °F - 21.2 °F 93% 29.89 in 3.1 mi WSW 2.3 mph - N/A Snow Light Snow
8:50 AM 23.0 °F 18.4 °F 21.2 °F 93% 29.92 in 1.2 mi Variable 3.5 mph - N/A Snow Snow
9:20 AM 24.8 °F - 23.0 °F 93% 29.92 in 1.2 mi Variable 2.3 mph - N/A Snow Snow
10:50 AM 28.4 °F 23.3 °F 26.6 °F 93% 29.95 in 6.2 mi West 4.6 mph - N/A Snow Light Snow
11:20 AM 28.4 °F 22.2 °F 24.8 °F 86% 29.95 in 12.4 mi WNW 5.8 mph - N/A Snow Light Snow
11:50 AM 28.4 °F 22.2 °F 24.8 °F 86% 29.95 in 18.6 mi West 5.8 mph - N/A   Mostly Cloudy
12:20 PM 30.2 °F - 24.8 °F 80% 29.92 in 18.6 mi WNW 2.3 mph - N/A   Mostly Cloudy
12:50 PM 32.0 °F - 24.8 °F 75% 29.92 in 15.5 mi Variable 2.3 mph - N/A   Mostly Cloudy
1:20 PM 32.0 °F - 23.0 °F 69% 29.92 in 15.5 mi NNW 2.3 mph - N/A   Mostly Cloudy
1:50 PM 32.0 °F 28.7 °F 24.8 °F 75% 29.92 in 15.5 mi NNE 3.5 mph - N/A   Mostly Cloudy
2:20 PM 33.8 °F 27.7 °F 21.2 °F 60% 29.92 in 15.5 mi ENE 6.9 mph - N/A   Mostly Cloudy
3:20 PM 32.0 °F 22.1 °F 19.4 °F 60% 29.92 in 15.5 mi ENE 13.8 mph - N/A   Scattered Clouds
3:50 PM 32.0 °F 22.1 °F 21.2 °F 64% 29.92 in 15.5 mi East 13.8 mph - N/A   Scattered Clouds
4:20 PM 30.2 °F 20.2 °F 19.4 °F 64% 29.92 in 15.5 mi East 12.7 mph - N/A   Scattered Clouds
4:50 PM 30.2 °F 20.2 °F 19.4 °F 64% 29.92 in 18.6 mi East 12.7 mph - N/A   Scattered Clouds
6:50 PM 24.8 °F - 15.8 °F 69% 29.98 in 12.4 mi East 2.3 mph - N/A   Partly Cloudy
7:50 PM 17.6 °F - 12.2 °F 79% 29.98 in 12.4 mi NW 2.3 mph - N/A   Partly Cloudy
8:50 PM 14.0 °F 6.5 °F 8.6 °F 79% 30.01 in 12.4 mi West 4.6 mph - N/A   Scattered Clouds
9:50 PM 14.0 °F 8.2 °F 12.2 °F 93% 30.01 in 9.3 mi SW 3.5 mph - N/A   Scattered Clouds